[[{"header":{"parameterUnit":"m.s-1","parameterCategory":1,"la1":30.2991,"la2":30.254,"lo1":-89.0895,"lo2":-89.0444,"dy":0.0017,"dx":0.0017,"nx":28,"ny":28,"refTime":"2025-05-21T21:00:00:Z","depth":0,"parameterNumber":2,"parameterNumberName":"U-component_of_WINDS"},"data":[0,0,0,0,0,0,0,0,0,0,0,0,0,0,0,0,0,0,0,0,0,0,0,0,0,0,0,0,0,0,0,0,0,0,0,0,0,0,0,0,0,0,0,0,0,0,0,0,0,0,0,0,0,0,0,0,0,0,2.4152,2.4153,0,2.4197,2.4198,2.4198,2.4184,2.4183,2.4182,2.4182,2.4232,2.4234,2.4236,0,0,0,0,0,0,0,0,0,0,0,0,0,2.4059,2.4061,2.4152,2.4153,2.4154,2.4197,2.4198,2.4198,2.4185,2.4183,2.4182,2.4181,2.4231,2.4233,2.4236,0,0,0,0,0,0,0,0,0,0,0,0,0,2.4101,2.4061,2.4152,2.4152,2.4152,2.4197,2.4198,2.4198,2.4185,2.4183,2.4182,2.4181,2.423,2.4233,2.4236,2.4286,0,0,2.4247,2.4248,0,0,0,0,0,0,0,0,2.4099,2.4105,2.4151,2.4152,2.4152,2.4184,2.4183,2.4228,2.4185,2.4173,2.4182,2.418,2.4217,2.4221,2.4233,2.4288,2.429,2.4247,2.4249,2.425,2.4251,0,0,0,0,0,0,0,2.4096,2.4103,2.417,2.4152,2.4153,2.4151,2.4155,2.4192,2.4202,2.4174,2.4173,2.4178,2.4217,2.423,2.4234,2.4291,2.4247,2.425,2.4252,2.4253,2.4389,2.4391,0,0,0,0,0,0,2.4092,2.4101,2.4169,2.4172,2.4122,2.4153,2.4158,2.4175,2.4202,2.4205,2.4179,2.4177,2.4225,2.423,2.4236,2.4295,2.425,2.4254,2.4255,2.4388,2.439,2.4391,0,0,0,0,0,0,2.409,2.4098,2.4167,2.4136,2.4144,2.4157,2.4176,2.4177,2.4189,2.4206,2.4208,2.419,2.4224,2.4231,2.4273,2.4297,2.4255,2.4258,2.4386,2.4388,2.4391,2.4415,0,0,0,0,0,0,2.4088,2.4098,2.4116,2.4136,2.4146,2.4203,2.4177,2.4179,2.4195,2.4193,2.4217,2.4219,2.4223,2.4268,2.4277,2.4301,2.4261,2.4384,2.4387,2.439,2.4412,2.4418,2.4423,0,0,0,0,0,2.4084,2.4122,2.4117,2.4125,2.4168,2.4204,2.421,2.4212,2.4197,2.4215,2.4226,2.4219,2.4293,2.4273,2.4282,2.4308,2.4382,2.4386,2.439,2.441,2.4417,2.4423,0,0,0,0,0,0,2.4105,2.4124,2.4119,2.4164,2.4182,2.4201,2.4225,2.422,2.4244,2.4241,2.4244,2.425,2.4293,2.4305,2.4282,2.4357,2.4336,2.4341,2.4348,2.4355,2.436,2.4357,2.4263,0,0,0,0,0,2.4115,2.414,2.4156,2.4195,2.4204,2.4213,2.4229,2.4229,2.4249,2.4257,2.427,2.4291,2.4319,2.4337,2.4364,2.4414,2.4419,2.4436,2.4441,2.4446,2.4451,2.4478,2.4486,2.4403,2.4403,2.4403,0,0,2.4135,2.4149,2.4165,2.4199,2.4213,2.4241,2.422,2.425,2.4271,2.4262,2.4302,2.4313,2.4336,2.4382,2.4403,2.4393,2.4475,2.445,2.4454,2.4456,2.4483,2.4491,2.4498,2.4406,2.4405,2.4405,0,0,2.4187,2.4199,2.4232,2.4247,2.4268,2.4274,2.4282,2.4302,2.4309,2.4349,2.4342,2.4368,2.4416,2.4433,2.4448,2.4506,2.45,2.4514,2.4543,2.457,2.4576,2.4582,2.4603,2.4611,2.4519,2.4519,2.4519,0,2.421,2.425,2.4251,2.4282,2.4297,2.4288,2.4323,2.4337,2.4367,2.4378,2.4366,2.4426,2.4441,2.4491,2.4505,2.4517,2.4527,2.4512,2.4575,2.4581,2.4586,2.4606,2.4614,2.4521,2.4521,2.4521,2.4521,0,2.4278,2.4306,2.4331,2.4358,2.4376,2.4409,2.4415,2.4434,2.4433,2.444,2.4482,2.4499,2.4529,2.4541,2.4541,2.4592,2.4585,2.4574,2.4552,2.4596,2.4615,2.4622,2.4523,2.4523,2.4522,2.4522,0,0,2.4344,2.4371,2.438,2.4392,2.4415,2.4438,2.447,2.4498,2.4515,2.4535,2.4564,2.4604,2.4594,2.4611,2.4613,2.4636,2.4681,2.4622,2.4623,2.4633,2.4739,2.4747,2.4756,2.4677,2.4679,2.468,2.4737,0,2.4398,2.4454,2.4455,2.4507,2.4533,2.4525,2.4554,2.4572,2.458,2.4604,2.4614,2.4642,2.4627,2.4637,2.466,2.4671,2.4702,2.4667,2.4704,2.4706,2.4699,2.4765,2.4774,2.4827,2.4744,2.4745,2.4746,0,2.4468,2.449,2.4544,2.4563,2.4574,2.4599,2.4625,2.4649,2.4669,2.4673,2.4692,2.469,2.4724,2.4701,2.475,2.4725,2.4741,2.4749,2.4751,2.4755,2.4729,2.4772,2.4844,2.4852,2.4758,2.4757,2.4756,0,2.4512,2.4555,2.4592,2.4603,2.4626,2.4644,2.4655,2.4674,2.469,2.4714,2.4725,2.4752,2.4767,2.4789,2.4795,2.4778,2.4843,2.4821,2.4848,2.4848,2.4863,2.4862,2.4939,2.4873,2.4872,2.4872,2.4872,0,2.4572,2.4605,2.4612,2.4635,2.4673,2.4674,2.4712,2.4722,2.4738,2.4764,2.4759,2.4784,2.479,2.4816,2.4821,2.486,2.4867,2.4872,2.4873,2.4873,2.4872,2.4883,2.488,2.4874,2.4874,2.4873,2.4873,0,2.4627,2.4633,2.4673,2.4691,2.4697,2.4724,2.474,2.4763,2.477,2.4802,2.481,2.4822,2.4852,2.486,2.4897,2.49,2.4947,2.4944,2.4939,2.4939,2.4967,2.4964,2.5054,2.5066,2.4991,2.4992,2.4993,0,2.4665,2.469,2.4711,2.4727,2.4738,2.4765,2.4782,2.4784,2.4802,2.4827,2.4848,2.4877,2.4901,2.495,2.4963,2.4991,2.4989,2.5019,2.4994,2.4992,2.499,2.4988,2.4991,2.5024,2.5025,2.5025,2.5026,0,2.4732,2.4734,2.4757,2.4782,2.4802,2.4822,2.4841,2.4855,2.4861,2.4882,2.4912,2.493,2.4967,2.4997,2.5025,2.5038,2.5033,2.5033,2.5041,2.5041,2.5037,2.504,2.4953,2.5031,2.5031,2.503,2.503,2.503,2.478,2.4803,2.482,2.4847,2.4861,2.4879,2.4901,2.4911,2.4936,2.4965,2.4966,2.4999,2.5019,2.5056,2.507,2.5097,2.5088,2.51,2.5103,2.5105,2.5108,2.5033,2.5102,2.5102,2.5102,2.5102,2.5102,0,2.4848,2.4858,2.4883,2.4909,2.493,2.4922,2.4943,2.4962,2.4991,2.5009,2.5032,2.5067,2.5096,2.5111,2.5139,2.5158,2.5157,2.5166,2.5164,2.5167,2.5114,2.5104,2.5166,2.5166,2.5166,2.5166,2.5166,2.5166,2.4885,2.4922,2.4926,2.497,2.4981,2.5012,2.5025,2.5042,2.5056,2.5095,2.5119,2.5127,2.5144,2.5174,2.5201,2.5204,2.5215,2.5225,2.5228,2.5178,2.5171,2.5165,2.5156,2.5227,2.5228,2.5279,2.5279,2.528]},{"header":{"parameterUnit":"m.s-1","parameterCategory":1,"la1":30.2991,"la2":30.254,"lo1":-89.0895,"lo2":-89.0444,"dy":0.0017,"dx":0.0017,"nx":28,"ny":28,"refTime":"2025-05-21T21:00:00:Z","depth":0,"parameterNumber":3,"parameterNumberName":"V-component_of_WINDS"},"data":[0,0,0,0,0,0,0,0,0,0,0,0,0,0,0,0,0,0,0,0,0,0,0,0,0,0,0,0,0,0,0,0,0,0,0,0,0,0,0,0,0,0,0,0,0,0,0,0,0,0,0,0,0,0,0,0,0,0,2.8863,2.8863,0,2.8873,2.8874,2.8874,2.8873,2.8873,2.8872,2.8872,2.8881,2.8881,2.8881,0,0,0,0,0,0,0,0,0,0,0,0,0,2.8838,2.8839,2.8863,2.8863,2.8863,2.8873,2.8874,2.8874,2.8873,2.8873,2.8872,2.8872,2.8881,2.8881,2.8881,0,0,0,0,0,0,0,0,0,0,0,0,0,2.8849,2.8839,2.8863,2.8864,2.8864,2.8873,2.8874,2.8874,2.8873,2.8873,2.8872,2.8872,2.888,2.8881,2.8881,2.889,0,0,2.8883,2.8883,0,0,0,0,0,0,0,0,2.8848,2.885,2.8864,2.8864,2.8864,2.8872,2.8868,2.8879,2.8873,2.8869,2.8872,2.8872,2.8878,2.8878,2.8881,2.889,2.889,2.8883,2.8884,2.8884,2.8884,0,0,0,0,0,0,0,2.8847,2.8849,2.8867,2.8864,2.8864,2.8863,2.8864,2.887,2.8875,2.887,2.887,2.8871,2.8878,2.888,2.8881,2.889,2.8883,2.8884,2.8884,2.8884,2.8904,2.8904,0,0,0,0,0,0,2.8847,2.8849,2.8867,2.8867,2.8856,2.8863,2.8865,2.8869,2.8875,2.8875,2.8871,2.8871,2.8879,2.888,2.8881,2.889,2.8884,2.8884,2.8885,2.8904,2.8904,2.8904,0,0,0,0,0,0,2.8846,2.8849,2.8866,2.8858,2.886,2.8864,2.8869,2.887,2.8872,2.8876,2.8876,2.8873,2.8879,2.8881,2.8887,2.889,2.8885,2.8885,2.8903,2.8904,2.8904,2.8907,0,0,0,0,0,0,2.8846,2.8848,2.8853,2.8858,2.8861,2.8873,2.887,2.887,2.8874,2.8873,2.8878,2.8878,2.8879,2.8886,2.8888,2.8891,2.8886,2.8903,2.8904,2.8904,2.8907,2.8907,2.8908,0,0,0,0,0,2.8845,2.8853,2.8853,2.8855,2.8866,2.8873,2.8875,2.8876,2.8874,2.8877,2.8879,2.8878,2.8889,2.8887,2.8888,2.8892,2.8903,2.8903,2.8904,2.8907,2.8907,2.8908,0,0,0,0,0,0,2.8848,2.8854,2.8854,2.8864,2.8868,2.8873,2.8878,2.8877,2.8882,2.8881,2.8882,2.8883,2.8889,2.8891,2.8888,2.8898,2.8896,2.8896,2.8897,2.8898,2.8899,2.8898,2.8886,0,0,0,0,0,2.885,2.8856,2.8861,2.8869,2.8871,2.8874,2.8877,2.8878,2.8882,2.8884,2.8886,2.8889,2.8893,2.8896,2.89,2.8907,2.8907,2.8909,2.891,2.8911,2.8911,2.8913,2.8914,2.8906,2.8906,2.8906,0,0,2.8854,2.8858,2.8862,2.887,2.8873,2.8878,2.8876,2.8882,2.8885,2.8884,2.889,2.8892,2.8895,2.8902,2.8905,2.8903,2.8913,2.8911,2.8912,2.8912,2.8914,2.8915,2.8915,2.8906,2.8906,2.8906,0,0,2.8863,2.8868,2.8875,2.8878,2.8882,2.8884,2.8885,2.889,2.8891,2.8897,2.8896,2.8899,2.8907,2.8908,2.891,2.8918,2.8916,2.8919,2.8922,2.8924,2.8925,2.8925,2.8927,2.8928,2.8919,2.8919,2.8919,0,2.8867,2.8876,2.8878,2.8884,2.8886,2.8886,2.8892,2.8894,2.89,2.8901,2.8899,2.8907,2.891,2.8915,2.8917,2.8919,2.892,2.8919,2.8925,2.8925,2.8926,2.8927,2.8928,2.892,2.892,2.892,2.892,0,2.888,2.8886,2.8891,2.8896,2.8899,2.8905,2.8906,2.8909,2.8909,2.891,2.8915,2.8917,2.8921,2.8922,2.8922,2.8927,2.8926,2.8925,2.8922,2.8927,2.8928,2.8929,2.892,2.892,2.892,2.892,0,0,2.8893,2.8898,2.89,2.8901,2.8905,2.8909,2.8914,2.8918,2.8919,2.8922,2.8925,2.893,2.8929,2.8931,2.893,2.8932,2.8936,2.893,2.893,2.8931,2.894,2.8941,2.8942,2.8935,2.8935,2.8936,2.894,0,2.8902,2.8912,2.8912,2.892,2.8924,2.8922,2.8926,2.8928,2.8929,2.8931,2.8931,2.8935,2.8933,2.8934,2.8935,2.8935,2.8938,2.8935,2.8937,2.8937,2.8936,2.8943,2.8944,2.8948,2.894,2.894,2.8941,0,2.8915,2.8918,2.8926,2.8928,2.8929,2.8933,2.8935,2.8938,2.894,2.894,2.8941,2.894,2.8943,2.894,2.8944,2.8942,2.8942,2.8942,2.8942,2.8942,2.8939,2.8942,2.8949,2.895,2.8942,2.8941,2.8941,0,2.8921,2.8928,2.8933,2.8935,2.8937,2.8939,2.894,2.8942,2.8943,2.8945,2.8945,2.8947,2.8948,2.8949,2.8948,2.8946,2.8951,2.8948,2.895,2.895,2.8951,2.8951,2.8958,2.8952,2.8952,2.8952,2.8952,0,2.8931,2.8936,2.8936,2.8939,2.8944,2.8944,2.8948,2.8948,2.8949,2.8951,2.895,2.8951,2.895,2.8951,2.895,2.8952,2.8953,2.8952,2.8952,2.8952,2.8952,2.8952,2.8952,2.8952,2.8952,2.8952,2.8952,0,2.894,2.894,2.8946,2.8947,2.8947,2.8951,2.8951,2.8953,2.8953,2.8956,2.8956,2.8956,2.8957,2.8956,2.8957,2.8956,2.8959,2.8958,2.8958,2.8958,2.896,2.8959,2.8967,2.8967,2.8962,2.8962,2.8962,0,2.8946,2.8949,2.8951,2.8952,2.8953,2.8956,2.8957,2.8956,2.8958,2.8958,2.896,2.8961,2.8962,2.8964,2.8963,2.8963,2.8962,2.8965,2.8962,2.8962,2.8961,2.8961,2.8961,2.8965,2.8965,2.8965,2.8965,0,2.8956,2.8955,2.8958,2.896,2.8961,2.8963,2.8964,2.8965,2.8964,2.8965,2.8966,2.8967,2.8968,2.8968,2.8968,2.8968,2.8966,2.8966,2.8966,2.8967,2.8966,2.8966,2.8959,2.8966,2.8966,2.8966,2.8966,2.8966,2.8963,2.8965,2.8966,2.8968,2.8969,2.8969,2.8971,2.8971,2.8972,2.8973,2.8972,2.8973,2.8973,2.8972,2.8972,2.8972,2.8971,2.8972,2.8972,2.8972,2.8972,2.8966,2.8972,2.8972,2.8972,2.8972,2.8972,0,2.8972,2.8972,2.8974,2.8975,2.8976,2.8975,2.8975,2.8976,2.8977,2.8977,2.8978,2.8978,2.8979,2.8977,2.8977,2.8977,2.8976,2.8977,2.8977,2.8977,2.8973,2.8973,2.8978,2.8978,2.8978,2.8978,2.8978,2.8978,2.8976,2.898,2.8979,2.8982,2.8982,2.8983,2.8984,2.8984,2.8983,2.8984,2.8984,2.8984,2.8983,2.8982,2.8982,2.8981,2.8981,2.8982,2.8981,2.8978,2.8977,2.8976,2.8976,2.8982,2.8982,2.8984,2.8984,2.8984]}]]